"2010-08-17 00:00:00",78061,12.77,359.2,2.644,0.915,11.78,106.9358,17.03,17.97,54.19,0,110.7,13.21,17.84,321.2
"2010-08-17 00:00:30",78062,13.13,5.795,6.826,1.719,16.8,106.9443,17.05,18.12,54.88,0,110.7,13.17,17.86,327.8
"2010-08-17 00:01:00",78063,14.48,7.916,6.735,1.877,19.32,106.9278,17.01,18.16,55.16,0,110.7,13.17,17.82,329.9
"2010-08-17 00:01:30",78064,13.65,9.65,7.219,1.749,20.32,106.9201,16.99,18.23,56.28,0,110.7,13.18,17.80,331.6
"2010-08-17 00:02:00",78065,15.82,4.107,6.862,3.21,22.83,106.9021,16.94,18.15,57.24,0,110.7,13.17,17.76,326.1
"2010-08-17 00:02:30",78066,19.48,2.757,6.711,3.05,20.43,106.8774,16.88,18.23,59.02,0,110.7,13.17,17.69,324.8
"2010-08-17 00:03:00",78067,18.77,1.148,6.852,2.846,15.62,106.8352,16.77,18.18,60.32,0,110.7,13.17,17.58,323.1
"2010-08-17 00:03:30",78068,19.76,2.09,3.973,1.966,23.69,106.7753,16.62,18.1,61.29,0,110.7,13.17,17.43,324.1
"2010-08-17 00:04:00",78069,17.44,1.429,5.099,2.012,19.85,106.7108,16.45,17.99,62.56,0,110.7,13.17,17.26,323.4
"2010-08-17 00:04:30",78070,19.18,358.2,5.577,2.137,22.72,106.6402,16.27,17.87,63.89,0,110.7,13.16,17.08,320.2
"2010-08-17 00:05:00",78071,20.21,356.5,3.776,1.408,23.14,106.5694,16.09,17.73,65,0,110.7,13.16,16.90,318.5
"2010-08-17 00:05:30",78072,20.33,351,4.172,1.17,20.03,106.5043,15.92,17.61,66.01,0,110.7,13.16,16.73,313.0
"2010-08-17 00:06:00",78073,19.92,348.8,3.615,0.716,22.66,106.4433,15.77,17.47,67.14,0,110.7,13.16,16.58,310.8
"2010-08-17 00:06:30",78074,18.99,342.2,6.321,0.935,23.82,106.3823,15.61,17.34,68.33,0,110.6,13.16,16.42,304.2
"2010-08-17 00:07:00",78075,17.65,341.8,4.517,0.874,22.35,106.3226,15.46,17.21,69.69,0,110.6,13.17,16.27,303.8
"2010-08-17 00:07:30",78076,17.64,339.5,4.714,0.933,23.61,106.2535,15.28,17.05,70.83,0,110.6,13.17,16.09,301.5
"2010-08-17 00:08:00",78077,14.21,330.9,6.74,2.126,19.29,106.1513,15.02,16.8,72.29,0,110.6,13.17,15.82,292.9
"2010-08-17 00:08:30",78078,14.5,316.2,5.769,1.164,16.49,106.0256,14.7,16.52,75.14,0,110.6,13.17,15.50,278.2
"2010-08-17 00:09:00",78079,14.01,316.6,5.349,1.31,16.38,105.9133,14.41,16.29,76.46,0,110.6,13.18,15.21,278.6
"2010-08-17 00:09:30",78080,13.14,314.3,4.71,1.161,22.07,105.8263,14.19,16.04,77.58,0,110.6,13.18,14.99,276.3
"2010-08-17 00:10:00",78081,13.98,324,5.889,0.781,19.06,105.7545,14,15.86,78.66,0,110.6,13.18,14.80,286.0
"2010-08-17 00:10:30",78082,14.41,332.8,4.006,0.93,9.66,105.6937,13.85,15.73,79.66,0,110.6,13.18,14.65,294.8
"2010-08-17 00:11:00",78083,11.86,329.4,4.937,0.951,21.63,105.649,13.73,15.59,80.8,0,110.6,13.18,14.53,291.4
"2010-08-17 00:11:30",78084,12.28,338,5.595,0.837,18.46,105.5896,13.58,15.47,82.2,0,110.6,13.18,14.38,300.0
"2010-08-17 00:12:00",78085,12.6,339.7,5.307,0.767,14.18,105.5393,13.45,15.32,83.3,0,110.6,13.18,14.25,301.7
"2010-08-17 00:12:30",78086,12.32,340.5,5.68,1.297,16.08,105.504,13.36,15.2,84.1,0,110.6,13.19,14.16,302.5
"2010-08-17 00:13:00",78087,13.05,339.2,5.148,0.885,16.79,105.4725,13.28,15.05,84.9,0,110.6,13.19,14.08,301.2
"2010-08-17 00:13:30",78088,13.8,336.8,3.82,0.776,21.77,105.4431,13.21,14.94,85.8,0,110.6,13.19,14.00,298.8
"2010-08-17 00:14:00",78089,14.85,340.4,3.71,0.785,14.26,105.4335,13.18,14.85,86.6,0,110.6,13.19,13.98,302.4
"2010-08-17 00:14:30",78090,14.08,346,4.679,0.905,-13.59,105.4386,13.2,14.76,86.9,0,110.6,13.19,13.99,308.0
"2010-08-17 00:15:00",78091,15.7,348.3,4.142,0.897,10.41,105.4395,13.2,14.71,86.7,0,110.5,13.19,14.00,310.3
"2010-08-17 00:15:30",78092,13.32,350.6,7.894,1.971,18.45,105.4637,13.26,14.66,86,0,110.5,13.19,14.06,312.6
"2010-08-17 00:16:00",78093,16.39,351.8,4.175,0.761,23.32,105.4471,13.22,14.64,86.2,0,110.5,13.19,14.02,313.8
"2010-08-17 00:16:30",78094,15.41,351.4,4.146,0.791,19.3,105.4713,13.28,14.62,85.3,0,110.5,13.19,14.08,313.4
"2010-08-17 00:17:00",78095,15.08,357.8,4.861,1.15,17.53,105.4961,13.34,14.61,84.4,0,110.5,13.19,14.14,319.8
"2010-08-17 00:17:30",78096,13.48,1.313,4.296,1.138,22.85,105.5239,13.41,14.64,83.3,0,110.5,13.19,14.21,323.3
"2010-08-17 00:18:00",78097,10.74,16.11,7.082,1.394,12.61,105.56,13.51,14.69,81.6,0,110.5,13.19,14.31,338.1
"2010-08-17 00:18:30",78098,13.3,19.49,4.204,1.228,23.02,105.6457,13.73,14.77,79.48,0,110.5,13.2,14.53,341.5
"2010-08-17 00:19:00",78099,12.1,11.05,4.474,2.189,23.37,105.7291,13.94,14.93,78.72,0,110.5,13.2,14.74,333.0
"2010-08-17 00:19:30",78100,13.32,6.395,3.654,1.785,20.15,105.7677,14.04,15.03,78.34,0,110.5,13.2,14.84,328.4
"2010-08-17 00:20:00",78101,11.29,7.192,3.46,1.26,22.83,105.7789,14.07,15.08,77.59,0,110.5,13.19,14.87,329.2
"2010-08-17 00:20:30",78102,8.48,11.99,6.685,1.459,22.14,105.8132,14.15,15.17,77.2,0,110.5,13.2,14.96,334.0
"2010-08-17 00:21:00",78103,7.439,15.92,5.491,1.123,17.77,105.8446,14.23,15.22,77.24,0,110.5,13.2,15.04,337.9
"2010-08-17 00:21:30",78104,10.37,29.73,4.333,1.134,22.55,105.8792,14.32,15.32,75.78,0,110.5,13.2,15.13,351.7
"2010-08-17 00:22:00",78105,11.33,30.35,4.253,0.703,22.62,105.9516,14.51,15.43,74.34,0,110.4,13.2,15.31,352.4
"2010-08-17 00:22:30",78106,11.26,30.53,3.476,0.859,22.43,106.0071,14.65,15.56,73.61,0,110.5,13.2,15.45,352.5
"2010-08-17 00:23:00",78107,11.51,29.95,2.546,0.946,23.31,106.08,14.84,15.71,71.25,0,110.4,13.2,15.64,352.0
"2010-08-17 00:23:30",78108,10.85,28.27,4.153,0.801,23.07,106.1766,15.09,15.9,69.57,0,110.4,13.2,15.89,350.3
"2010-08-17 00:24:00",78109,10.76,27.43,5.464,1.239,21.55,106.2535,15.28,15.98,68.63,0,110.4,13.2,16.09,349.4
"2010-08-17 00:24:30",78110,8.72,21.59,1.936,0.271,17.94,106.3047,15.41,15.99,68.23,0,110.4,13.23,16.22,343.6
"2010-08-17 00:25:00",78111,8.42,24.04,0.883,0.253,18.54,106.3499,15.53,16.03,66.73,0,110.4,13.24,16.34,346.0
"2010-08-17 00:25:30",78112,8.77,24.77,1.86,0.579,18.89,106.4086,15.68,16.17,64.96,0,110.4,13.25,16.49,346.8
"2010-08-17 00:26:00",78113,8.94,23.93,1.908,0.912,19.48,106.4617,15.82,16.29,64.01,0,110.4,13.25,16.62,345.9
"2010-08-17 00:26:30",78114,8.74,23.39,1.415,0.393,19.75,106.5118,15.94,16.42,63.93,0,110.4,13.25,16.75,345.4
"2010-08-17 00:27:00",78115,9,24.72,1.529,0.46,19.82,106.5517,16.05,16.54,63.28,0,110.4,13.26,16.85,346.7
"2010-08-17 00:27:30",78116,8.57,22.77,1.607,0.31,20.03,106.5847,16.13,16.64,62.44,0,110.4,13.26,16.94,344.8
"2010-08-17 00:28:00",78117,7.937,21.54,1.636,0.334,20.24,106.6269,16.24,16.76,61.73,0,110.4,13.26,17.05,343.5
"2010-08-17 00:28:30",78118,8.68,22.12,1.776,0.782,20.21,106.6605,16.32,16.86,61.39,0,110.4,13.26,17.13,344.1
"2010-08-17 00:29:00",78119,8.77,22.45,1.833,0.406,19.79,106.6838,16.38,16.94,61.32,0,110.6,13.26,17.19,344.5
"2010-08-17 00:29:30",78120,9.58,26.4,6.662,1.408,21.77,106.694,16.41,17.16,60.95,0,110.4,13.23,17.22,348.4
"2010-08-17 00:30:00",78121,10.01,31.67,6.7,1.714,22.2,106.7053,16.44,17.27,60.67,0,110.4,13.23,17.25,353.7
"2010-08-17 00:30:30",78122,9.99,30.05,7.489,1.579,22.5,106.73,16.5,17.36,59.25,0,110.4,13.23,17.31,352.0
"2010-08-17 00:31:00",78123,9.08,22.62,2.573,0.799,19.15,106.7698,16.61,17.24,58.7,0,110.4,13.23,17.42,344.6
"2010-08-17 00:31:30",78124,8.63,23.23,2.395,0.611,18.66,106.8005,16.68,17.32,58.51,0,110.4,13.27,17.49,345.2
"2010-08-17 00:32:00",78125,9.03,21.18,1.813,0.346,18.72,106.8272,16.75,17.41,57.77,0,110.5,13.27,17.56,343.2
"2010-08-17 00:32:30",78126,8.66,23.5,2.627,0.525,18.73,106.8574,16.83,17.48,56.78,0,110.5,13.27,17.64,345.5
"2010-08-17 00:33:00",78127,8.87,21.9,2.432,0.477,18.81,106.8827,16.89,17.55,56.4,0,110.4,13.27,17.71,343.9
"2010-08-17 00:33:30",78128,8.07,20.27,1.143,0.304,18.8,106.9027,16.95,17.62,56.41,0,110.5,13.27,17.76,342.3
"2010-08-17 00:34:00",78129,8.38,25.89,1.804,0.462,18.76,106.9278,17.01,17.69,55.66,0,110.5,13.28,17.82,347.9
"2010-08-17 00:34:30",78130,8.85,26.71,1.056,0.299,19.05,106.9304,17.02,17.74,54.41,0,110.4,13.27,17.83,348.7
"2010-08-17 00:35:00",78131,8.79,27.49,0.803,0.344,19.01,106.9504,17.07,17.77,54.43,0,110.4,13.28,17.88,349.5
"2010-08-17 00:35:30",78132,9.24,28.1,0.645,0.395,18.89,106.9642,17.1,17.83,54.33,0,110.4,13.28,17.92,350.1
"2010-08-17 00:36:00",78133,8.41,28.36,0.843,0.298,18.76,106.9644,17.1,17.88,54.18,0,110.4,13.28,17.92,350.4
"2010-08-17 00:36:30",78134,8.56,29.83,0.761,0.305,18.72,106.9707,17.12,17.9,53.56,0,110.4,13.27,17.93,351.8
"2010-08-17 00:37:00",78135,8.08,29.7,0.815,0.406,18.7,106.9771,17.14,17.93,53.46,0,110.4,13.27,17.95,351.7
"2010-08-17 00:37:30",78136,7.723,29.71,0.948,0.279,18.79,106.9901,17.17,17.96,53.36,0,110.4,13.27,17.98,351.7
"2010-08-17 00:38:00",78137,7.902,31,1.315,0.499,18.82,106.998,17.19,17.98,53.22,0,110.4,13.27,18.00,353.0
"2010-08-17 00:38:30",78138,7.376,28.91,1.554,0.284,18.93,106.998,17.19,18,52.83,0,110.4,13.27,18.00,350.9
"2010-08-17 00:39:00",78139,7.704,26.64,0.977,0.271,19.03,106.9986,17.19,18.03,51.75,0,110.4,13.27,18.00,348.6
"2010-08-17 00:39:30",78140,7.734,26.86,0.96,0.241,19.06,107.0165,17.24,18.07,51.48,0,110.4,13.27,18.05,348.9
"2010-08-17 00:40:00",78141,8.1,26.3,1.137,0.331,19.34,107.0387,17.29,18.11,51.12,0,110.4,13.27,18.11,348.3
"2010-08-17 00:40:30",78142,8.85,25.35,4.485,0.883,20.31,107.0649,17.36,18.14,51.7,0,110.4,13.23,18.17,347.4
"2010-08-17 00:41:00",78143,8.93,29.57,7.397,1.259,21.84,107.1143,17.49,18.33,51.59,0,110.4,13.24,18.30,351.6
"2010-08-17 00:41:30",78144,8.49,31.64,7.284,1.278,21.81,107.1595,17.6,18.44,51.06,0,110.5,13.24,18.42,353.6
"2010-08-17 00:42:00",78145,7.119,26.68,0.953,0.389,19.48,107.1938,17.69,18.39,50.79,0,110.5,13.24,18.51,348.7
"2010-08-17 00:42:30",78146,6.848,27.18,1.113,0.244,19.35,107.2273,17.78,18.45,50.4,0,110.5,13.28,18.59,349.2
"2010-08-17 00:43:00",78147,6.82,27.27,0.959,0.191,19.36,107.2576,17.86,18.55,49.96,0,110.5,13.28,18.67,349.3
"2010-08-17 00:43:30",78148,6.557,27.51,0.746,0.291,19.16,107.2805,17.91,18.61,49.51,0,110.5,13.28,18.73,349.5
"2010-08-17 00:44:00",78149,6.312,28.35,1.766,0.271,19.1,107.3029,17.97,18.66,49.23,0,110.5,13.28,18.79,350.4
"2010-08-17 00:44:30",78150,6.67,30.68,1.526,0.451,19.13,107.3072,17.98,18.71,49.42,0,110.5,13.28,18.80,352.7
"2010-08-17 00:45:00",78151,6.372,30.44,1.277,0.531,19.15,107.3103,17.99,18.74,48.91,0,110.5,13.28,18.81,352.4
"2010-08-17 00:45:30",78152,7.038,31.71,2.103,1.061,18.91,107.3084,17.99,18.76,48.97,0,110.5,13.28,18.80,353.7
"2010-08-17 00:46:00",78153,9.35,36.52,1.588,0.619,18.63,107.3047,17.98,18.76,49.56,0,110.5,13.28,18.79,358.5
"2010-08-17 00:46:30",78154,9.76,36.99,1.597,0.355,18.92,107.2807,17.91,18.75,49.56,0,110.5,13.28,18.73,359.0
"2010-08-17 00:47:00",78155,8.26,34.5,2.687,0.991,19.09,107.2706,17.89,18.73,49.97,0,110.5,13.25,18.70,356.5
"2010-08-17 00:47:30",78156,8.16,38.66,7.664,1.817,21.32,107.2619,17.87,18.86,50.3,0,110.5,13.25,18.68,0.7
"2010-08-17 00:48:00",78157,9.07,39.6,2.616,0.551,18.73,107.245,17.82,18.73,50.2,0,110.5,13.25,18.64,1.6
"2010-08-17 00:48:30",78158,9.34,41.99,1.577,0.205,18.48,107.2258,17.77,18.66,50.47,0,110.5,13.29,18.59,4.0
"2010-08-17 00:49:00",78159,9.89,44.44,0.664,0.135,18.22,107.197,17.7,18.62,51.14,0,110.5,13.29,18.51,6.4
"2010-08-17 00:49:30",78160,9.87,46.75,0.968,0.097,18.31,107.1624,17.61,18.56,51.93,0,110.5,13.28,18.43,8.8
"2010-08-17 00:50:00",78161,9.52,46.12,1.987,0.327,13.29,107.1336,17.54,18.51,51.97,0,110.5,13.29,18.35,8.1
"2010-08-17 00:50:30",78162,9.17,44.47,2.5,0.151,18.53,107.1063,17.47,18.45,51.69,0,110.5,13.29,18.28,6.5
"2010-08-17 00:51:00",78163,8.89,42.89,2.87,0.218,18.67,107.1004,17.45,18.4,51.73,0,110.5,13.29,18.27,4.9
"2010-08-17 00:51:30",78164,8.78,38.72,1.178,0.156,18.69,107.1012,17.45,18.38,51.63,0,110.5,13.29,18.27,0.7
"2010-08-17 00:52:00",78165,8.65,38.04,1.287,0.216,18.59,107.1018,17.46,18.38,51.58,0,110.5,13.29,18.27,0.0
"2010-08-17 00:52:30",78166,8.38,37.53,1.313,0.19,18.57,107.1029,17.46,18.38,51.55,0,110.5,13.29,18.27,359.5
"2010-08-17 00:53:00",78167,8.36,37.36,1.393,0.335,18.42,107.1204,17.5,18.41,51.31,0,110.5,13.29,18.32,359.4
"2010-08-17 00:53:30",78168,8.4,35.39,2.73,0.669,18.46,107.1345,17.54,18.39,50.56,0,110.5,13.28,18.35,357.4
"2010-08-17 00:54:00",78169,8.39,34.69,1.8,0.472,18.49,107.1356,17.54,18.42,50.42,0,110.5,13.28,18.36,356.7
"2010-08-17 00:54:30",78170,7.301,31.96,1.993,0.751,18.55,107.1381,17.55,18.43,49.31,0,110.5,13.28,18.36,354.0
"2010-08-17 00:55:00",78171,7.949,34.6,2.81,0.693,18.37,107.1587,17.6,18.45,49.68,0,110.5,13.28,18.42,356.6
"2010-08-17 00:55:30",78172,8.83,36.99,0.905,0.161,18.02,107.1674,17.62,18.46,49.95,0,110.5,13.28,18.44,359.0
"2010-08-17 00:56:00",78173,9.25,37.56,1.04,0.461,17.87,107.15,17.58,18.45,50.13,0,110.5,13.28,18.39,359.6
"2010-08-17 00:56:30",78174,9.6,38.77,0.629,0.219,17.88,107.1353,17.54,18.45,49.27,0,110.5,13.28,18.36,0.8
"2010-08-17 00:57:00",78175,9,39.55,1.015,0.175,17.76,107.1229,17.51,18.4,49.64,0,110.5,13.28,18.32,1.5
"2010-08-17 00:57:30",78176,9.24,40.1,1.99,0.224,17.79,107.098,17.45,18.36,49.84,0,110.5,13.28,18.26,2.1
"2010-08-17 00:58:00",78177,9.54,39.56,1.56,0.259,17.77,107.0679,17.37,18.32,50.12,0,110.5,13.28,18.18,1.6
"2010-08-17 00:58:30",78178,9.67,39.71,2.064,0.361,17.89,107.0517,17.33,18.26,50.04,0,110.5,13.28,18.14,1.7
"2010-08-17 00:59:00",78179,9.56,40.05,1.442,0.301,17.81,107.0293,17.27,18.22,50.4,0,110.5,13.29,18.08,2.0
"2010-08-17 00:59:30",78180,10.06,36.32,1.074,0.342,18.39,107.0128,17.23,18.18,49.16,0,110.5,13.29,18.04,358.3
"2010-08-17 01:00:00",78181,9.92,37.59,1.564,0.427,18.21,107.0037,17.2,18.15,49.29,0,110.5,13.29,18.02,359.6
"2010-08-17 01:00:30",78182,9.99,35.18,0.796,0.226,18.51,106.9985,17.19,18.16,48.56,0,110.5,13.29,18.00,357.2
"2010-08-17 01:01:00",78183,9.99,34.49,0.704,0.449,18.72,107.014,17.23,18.15,47.95,0,110.5,13.29,18.04,356.5
"2010-08-17 01:01:30",78184,9.04,33.74,1.561,1.033,18.88,107.0257,17.26,18.16,47.33,0,110.5,13.29,18.07,355.7
"2010-08-17 01:02:00",78185,8.61,33.41,1.634,0.807,19.07,107.0442,17.31,18.18,46.42,0,110.5,13.29,18.12,355.4
"2010-08-17 01:02:30",78186,9.9,36.03,2.284,0.661,18.4,107.0712,17.38,18.23,46.94,0,110.5,13.29,18.19,358.0
"2010-08-17 01:03:00",78187,10.45,36.89,1.822,0.191,18.42,107.0894,17.42,18.26,47.18,0,110.5,13.29,18.24,358.9
"2010-08-17 01:03:30",78188,10.14,34.24,1.107,0.493,18.97,107.0985,17.45,18.3,45.74,0,110.5,13.29,18.26,356.2
"2010-08-17 01:04:00",78189,9.92,34,0.721,0.375,18.74,107.1208,17.5,18.34,45.7,0,110.5,13.29,18.32,356.0
"2010-08-17 01:04:30",78190,9.74,33.99,0.725,0.369,18.64,107.1276,17.52,18.38,45.67,0,110.5,13.29,18.34,356.0
"2010-08-17 01:05:00",78191,9.97,35.65,1.322,0.368,18.55,107.1486,17.58,18.42,45.47,0,110.5,13.29,18.39,357.6
"2010-08-17 01:05:30",78192,10.08,36.58,1.433,0.29,18.09,107.1611,17.61,18.44,46.36,0,110.5,13.29,18.42,358.6
"2010-08-17 01:06:00",78193,8.42,32.49,1.695,0.843,18.47,107.1773,17.65,18.47,46.12,0,110.6,13.29,18.46,354.5
"2010-08-17 01:06:30",78194,9.06,33.94,1.339,0.922,18.25,107.1758,17.65,18.51,45.95,0,110.5,13.29,18.46,355.9
"2010-08-17 01:07:00",78195,10.79,36.66,1.768,0.311,18,107.1784,17.65,18.55,47.51,0,110.5,13.29,18.47,358.7
"2010-08-17 01:07:30",78196,10.41,37.13,1.081,0.264,18.12,107.175,17.64,18.55,47.39,0,110.6,13.29,18.46,359.1
"2010-08-17 01:08:00",78197,9.89,38.11,1.649,0.294,17.84,107.1709,17.63,18.56,47.95,0,110.6,13.29,18.45,0.1
"2010-08-17 01:08:30",78198,9.36,37.12,1.019,0.207,17.75,107.1679,17.63,18.56,48.35,0,110.6,13.29,18.44,359.1
"2010-08-17 01:09:00",78199,9.4,36.05,1.251,0.318,18,107.1448,17.57,18.53,48.5,0,110.6,13.29,18.38,358.0
"2010-08-17 01:09:30",78200,9.02,38.65,2.337,0.389,17.91,107.1332,17.54,18.5,48.53,0,110.6,13.29,18.35,0.7
"2010-08-17 01:10:00",78201,9.17,37.72,2.225,0.381,18.13,107.1053,17.47,18.45,48.41,0,110.6,13.28,18.28,359.7
"2010-08-17 01:10:30",78202,8.74,37,1.631,0.262,18.19,107.1,17.45,18.42,48.16,0,110.6,13.28,18.26,359.0
"2010-08-17 01:11:00",78203,8.72,39.51,1.558,0.315,18.11,107.0994,17.45,18.41,48.25,0,110.6,13.28,18.26,1.5
"2010-08-17 01:11:30",78204,8.83,40.62,1.081,0.167,18.06,107.0946,17.44,18.4,48.6,0,110.6,13.28,18.25,2.6
"2010-08-17 01:12:00",78205,8.59,42.57,0.798,0.122,17.94,107.0687,17.37,18.36,49.03,0,110.6,13.28,18.18,4.6
"2010-08-17 01:12:30",78206,8.34,42.64,1.207,0.206,18.06,107.0656,17.36,18.33,48.96,0,110.6,13.28,18.18,4.6
"2010-08-17 01:13:00",78207,7.646,43.59,1.508,0.349,17.75,107.0568,17.34,18.3,49.65,0,110.6,13.28,18.15,5.6
"2010-08-17 01:13:30",78208,7.633,47.24,1.134,0.236,17.55,107.029,17.27,18.25,50.76,0,110.6,13.28,18.08,9.2
"2010-08-17 01:14:00",78209,7.921,50.31,1.932,0.274,17.81,106.9988,17.19,18.2,50.66,0,110.6,13.28,18.00,12.3
"2010-08-17 01:14:30",78210,7.635,51.34,3.48,0.441,17.76,106.9912,17.17,18.16,50.61,0,110.6,13.28,17.98,13.3
"2010-08-17 01:15:00",78211,7.409,57.26,1.573,0.184,17.2,106.9535,17.08,18.11,52.43,0,110.6,13.28,17.89,19.3
"2010-08-17 01:15:30",78212,7.537,55.28,2.775,0.193,17.48,106.9137,16.97,18.03,52.49,0,110.6,13.29,17.79,17.3
"2010-08-17 01:16:00",78213,8.21,58.48,1.793,0.187,17.35,106.8791,16.89,17.95,53.17,0,110.6,13.29,17.70,20.5
"2010-08-17 01:16:30",78214,7.809,55.24,1.875,0.181,17.7,106.8422,16.79,17.88,52.89,0,110.6,13.29,17.60,17.2
"2010-08-17 01:17:00",78215,7.799,52.35,3.247,0.223,17.73,106.8289,16.76,17.82,52.84,0,110.6,13.29,17.57,14.3
"2010-08-17 01:17:30",78216,8.03,54.4,3.366,0.206,17.72,106.8115,16.71,17.77,53.18,0,110.6,13.29,17.52,16.4
"2010-08-17 01:18:00",78217,8.05,50.31,2.046,0.196,17.73,106.7951,16.67,17.74,53.23,0,110.6,13.29,17.48,12.3
"2010-08-17 01:18:30",78218,8.76,47.66,1.101,0.238,18.07,106.7951,16.67,17.69,52.46,0,110.6,13.29,17.48,9.7
"2010-08-17 01:19:00",78219,8.58,47.04,1.024,0.139,18.04,106.7951,16.67,17.66,52.33,0,110.6,13.29,17.48,9.0
"2010-08-17 01:19:30",78220,7.86,48.15,1.628,0.18,17.92,106.8137,16.72,17.66,52.26,0,110.6,13.29,17.53,10.2
"2010-08-17 01:20:00",78221,7.379,53.64,1.465,0.222,17.67,106.8281,16.75,17.68,52.91,0,110.6,13.29,17.57,15.6
"2010-08-17 01:20:30",78222,7.886,53.95,2.137,0.235,17.85,106.8258,16.75,17.66,52.77,0,110.6,13.29,17.56,16.0
"2010-08-17 01:21:00",78223,8,52.16,1.789,0.108,18.11,106.8284,16.76,17.67,51.84,0,110.6,13.29,17.57,14.2
"2010-08-17 01:21:30",78224,7.908,55.92,1.321,0.185,17.97,106.8295,16.76,17.68,51.8,0,110.6,13.29,17.57,17.9
"2010-08-17 01:22:00",78225,7.709,56.87,0.917,0.231,17.86,106.8399,16.78,17.7,52.02,0,110.6,13.29,17.60,18.9
"2010-08-17 01:22:30",78226,8.3,55.48,1.229,0.134,18.23,106.8596,16.84,17.7,50.95,0,110.6,13.29,17.65,17.5
"2010-08-17 01:23:00",78227,8.39,57.45,0.799,0.082,18.12,106.8712,16.87,17.73,50.67,0,110.6,13.29,17.68,19.5
"2010-08-17 01:23:30",78228,8.78,56.81,0.764,0.264,18.12,106.8963,16.93,17.75,50.69,0,110.6,13.29,17.74,18.8
"2010-08-17 01:24:00",78229,9.53,56.44,1.102,0.186,18.25,106.9067,16.96,17.78,49.76,0,110.6,13.29,17.77,18.4
"2010-08-17 01:24:30",78230,10.14,54.89,0.473,0.111,18.24,106.9295,17.01,17.82,49.12,0,110.6,13.29,17.83,16.9
"2010-08-17 01:25:00",78231,9.71,56.44,0.522,0.218,18.15,106.9484,17.06,17.85,49.09,0,110.6,13.29,17.87,18.4
"2010-08-17 01:25:30",78232,9.7,57.47,0.804,0.354,17.8,106.9625,17.1,17.89,50.02,0,110.6,13.29,17.91,19.5
"2010-08-17 01:26:00",78233,10.25,58.22,0.818,0.082,17.94,106.954,17.08,17.9,49.65,0,110.6,13.29,17.89,20.2
"2010-08-17 01:26:30",78234,9.97,57.59,0.419,0.094,18.15,106.9594,17.09,17.92,49.15,0,110.6,13.29,17.90,19.6
"2010-08-17 01:27:00",78235,9.86,56.09,0.51,0.114,17.96,106.9642,17.1,17.94,49.36,0,110.6,13.29,17.92,18.1
"2010-08-17 01:27:30",78236,9.85,55.61,0.252,0.088,18.18,106.9642,17.1,17.94,49.02,0,110.6,13.29,17.92,17.6
"2010-08-17 01:28:00",78237,9.83,56.47,0.48,0.039,18.02,106.9642,17.1,17.95,49.02,0,110.6,13.29,17.92,18.5
"2010-08-17 01:28:30",78238,9.62,57.36,0.526,0.055,18.12,106.9644,17.1,17.96,48.96,0,110.6,13.29,17.92,19.4
"2010-08-17 01:29:00",78239,9.67,55.15,0.989,0.059,18.39,106.9873,17.16,17.99,47.89,0,110.6,13.28,17.97,17.2
"2010-08-17 01:29:30",78240,9.41,57.3,1.023,0.069,18.21,106.998,17.19,18,48.14,0,110.6,13.28,18.00,19.3
"2010-08-17 01:30:00",78241,9.22,58.08,0.786,0.133,18.4,107.0143,17.23,18.03,47.79,0,110.6,13.29,18.04,20.1
"2010-08-17 01:30:30",78242,9.07,59.62,0.47,0.043,18.31,107.0318,17.28,18.07,47.74,0,110.6,13.29,18.09,21.6
"2010-08-17 01:31:00",78243,9.08,60.42,0.75,0.068,18.36,107.0394,17.3,18.11,47.67,0,110.6,13.29,18.11,22.4
"2010-08-17 01:31:30",78244,9.03,61.02,1.081,0.141,18.17,107.0608,17.35,18.14,47.54,0,110.6,13.29,18.16,23.0
"2010-08-17 01:32:00",78245,9.12,59.18,0.496,0.088,18.22,107.0656,17.36,18.15,47.04,0,110.6,13.29,18.18,21.2
"2010-08-17 01:32:30",78246,8.9,59.47,0.508,0.131,18,107.0656,17.36,18.18,47.6,0,110.6,13.29,18.18,21.5
"2010-08-17 01:33:00",78247,9.02,59.54,1.037,0.148,17.9,107.0653,17.36,18.19,47.91,0,110.6,13.29,18.18,21.5
"2010-08-17 01:33:30",78248,9.13,58.99,0.368,0.091,18.17,107.0554,17.34,18.17,47.36,0,110.6,13.29,18.15,21.0
"2010-08-17 01:34:00",78249,9.08,57.97,0.916,0.206,18.31,107.0619,17.35,18.18,46.96,0,110.6,13.29,18.17,20.0
"2010-08-17 01:34:30",78250,9.15,57.83,0.933,0.161,18.37,107.0656,17.36,18.2,46.84,0,110.6,13.29,18.18,19.8
"2010-08-17 01:35:00",78251,9.48,56.99,0.56,0.07,18.25,107.0664,17.37,18.23,46.7,0,110.6,13.29,18.18,19.0
"2010-08-17 01:35:30",78252,9.35,56.4,0.509,0.093,18.37,107.0901,17.43,18.24,46.35,0,110.6,13.29,18.24,18.4
"2010-08-17 01:36:00",78253,9.01,55.97,0.809,0.124,18.59,107.0994,17.45,18.25,45.82,0,110.6,13.29,18.26,18.0
"2010-08-17 01:36:30",78254,9.16,56.62,2.693,0.373,18.24,107.1205,17.5,18.3,46.09,0,110.6,13.29,18.32,18.6
"2010-08-17 01:37:00",78255,9.25,55.78,1.203,0.205,18.43,107.1312,17.53,18.33,46.16,0,110.6,13.29,18.34,17.8
"2010-08-17 01:37:30",78256,9.31,55.17,0.295,0.059,18.4,107.1332,17.54,18.34,45.94,0,110.6,13.29,18.35,17.2
"2010-08-17 01:38:00",78257,9.45,55.98,0.764,0.079,18.46,107.1408,17.56,18.37,45.57,0,110.6,13.29,18.37,18.0
"2010-08-17 01:38:30",78258,9.29,56.57,0.398,0.084,18.31,107.165,17.62,18.41,45.41,0,110.6,13.29,18.43,18.6
"2010-08-17 01:39:00",78259,9.3,56.45,1.186,0.102,18.28,107.167,17.62,18.43,45.55,0,110.6,13.29,18.44,18.5
"2010-08-17 01:39:30",78260,9.1,55.65,0.351,0.153,18.26,107.167,17.62,18.44,45.51,0,110.6,13.29,18.44,17.7
"2010-08-17 01:40:00",78261,9.06,55.07,0.481,0.058,18.14,107.167,17.62,18.46,45.53,0,110.6,13.29,18.44,17.1
"2010-08-17 01:40:30",78262,9.25,55.27,0.333,0.15,18.17,107.167,17.62,18.47,45.45,0,110.6,13.29,18.44,17.3
"2010-08-17 01:41:00",78263,9.32,56.43,0.489,0.096,18.04,107.167,17.62,18.49,46.02,0,110.6,13.29,18.44,18.4
"2010-08-17 01:41:30",78264,9.3,57.35,0.526,0.07,17.98,107.1662,17.62,18.46,46.3,0,110.6,13.29,18.43,19.3
"2010-08-17 01:42:00",78265,9.18,58.17,1.454,0.102,17.79,107.1433,17.56,18.46,46.79,0,110.6,13.29,18.38,20.2
"2010-08-17 01:42:30",78266,9.08,61.68,1.028,0.083,17.54,107.1185,17.5,18.42,48.16,0,110.6,13.29,18.31,23.7
"2010-08-17 01:43:00",78267,9.19,60.78,0.767,0.084,17.63,107.0864,17.42,18.37,48.45,0,110.6,13.29,18.23,22.8
"2010-08-17 01:43:30",78268,9.14,61.35,0.594,0.043,17.67,107.0543,17.33,18.33,48.84,0,110.6,13.29,18.15,23.3
"2010-08-17 01:44:00",78269,9.17,59.4,0.979,0.068,17.64,107.0242,17.26,18.27,49.25,0,110.6,13.29,18.07,21.4
"2010-08-17 01:44:30",78270,9.08,59,0.796,0.07,17.68,106.9977,17.19,18.2,49.62,0,110.6,13.29,18.00,21.0
"2010-08-17 01:45:00",78271,9,57.14,1.455,0.098,17.77,106.9656,17.11,18.15,49.73,0,110.6,13.29,17.92,19.1
"2010-08-17 01:45:30",78272,8.96,55.97,1.61,0.071,17.85,106.956,17.08,18.09,49.68,0,110.6,13.29,17.89,18.0
"2010-08-17 01:46:00",78273,9.02,59.07,0.626,0.039,17.62,106.9309,17.02,18.03,50.45,0,110.6,13.29,17.83,21.1
"2010-08-17 01:46:30",78274,9.09,58.3,0.578,0.082,17.74,106.9025,16.95,17.98,50.52,0,110.6,13.29,17.76,20.3
"2010-08-17 01:47:00",78275,8.72,56.34,0.935,0.13,17.87,106.8966,16.93,17.93,50.19,0,110.6,13.29,17.74,18.3
"2010-08-17 01:47:30",78276,8.67,57.52,0.873,0.058,17.79,106.8963,16.93,17.89,50.38,0,110.6,13.29,17.74,19.5
"2010-08-17 01:48:00",78277,8.73,56.55,1.183,0.054,17.87,106.8794,16.89,17.86,50.31,0,110.6,13.29,17.70,18.5
"2010-08-17 01:48:30",78278,8.54,54.53,0.742,0.052,18.05,106.8757,16.88,17.86,49.75,0,110.6,13.29,17.69,16.5
"2010-08-17 01:49:00",78279,8.55,55.84,1.513,0.074,17.9,106.8946,16.92,17.83,49.98,0,110.6,13.29,17.74,17.8
"2010-08-17 01:49:30",78280,8.79,56.25,0.7,0.102,17.83,106.8892,16.91,17.83,50.49,0,110.6,13.29,17.72,18.2